| time (UTC) | temp F | wind direction | speed MPH | gust MPH | rain 1hr in | rain 24hr in | rain mn in | humidity % | barometer mb |
| 20260831035542 | 61 | 0 | 0.0 | 6.0 | 0.00 | 0.01 | 0.00 | 89 | 1011.2 |
| 20260831035045 | 61 | 0 | 0.0 | 6.0 | 0.00 | 0.01 | 0.00 | 89 | 1011.1 |
| 20260831034605 | 61 | 0 | 0.0 | 3.0 | 0.00 | 0.01 | 0.00 | 89 | 1011.1 |
| 20260831034042 | 61 | 0 | 0.0 | 3.0 | 0.00 | 0.01 | 0.00 | 89 | 1011.2 |
| 20260831033542 | 61 | 0 | 0.0 | 3.0 | 0.00 | 0.01 | 0.00 | 90 | 1011.3 |
| 20260831033104 | 61 | 0 | 0.0 | 0.0 | 0.00 | 0.01 | 0.00 | 90 | 1011.4 |
| 20260831032544 | 61 | 0 | 0.0 | 0.0 | 0.00 | 0.01 | 0.00 | 90 | 1011.3 |
| 20260831032043 | 61 | 0 | 0.0 | 0.0 | 0.00 | 0.01 | 0.00 | 89 | 1011.4 |
| 20260831031602 | 61 | 0 | 0.0 | 0.0 | 0.00 | 0.01 | 0.00 | 89 | 1011.4 |
| 20260831031047 | 61 | 0 | 0.0 | 6.0 | 0.00 | 0.01 | 0.00 | 88 | 1011.4 |
| 20260831030547 | 61 | 0 | 0.0 | 6.0 | 0.00 | 0.01 | 0.00 | 87 | 1011.3 |
| 20260831030107 | 62 | 215 | 0.0 | 3.0 | 0.00 | 0.01 | 0.00 | 85 | 1011.3 |
| 20260831025545 | 62 | 0 | 0.0 | 8.0 | 0.00 | 0.01 | 0.00 | 84 | 1011.4 |
| 20260831025135 | 63 | 0 | 0.0 | 9.0 | 0.00 | 0.00 | 0.00 | 81 | 1011.3 |
| 20260831024627 | 64 | 0 | 1.0 | 9.0 | 0.00 | 0.00 | 0.00 | 77 | 1011.3 |
| 20260831024042 | 65 | 199 | 1.0 | 9.0 | 0.00 | 0.00 | 0.00 | 75 | 1011.3 |
| 20260831023542 | 64 | 0 | 0.0 | 7.0 | 0.00 | 0.00 | 0.00 | 74 | 1011.1 |
| 20260831023106 | 64 | 0 | 0.0 | 6.0 | 0.00 | 0.00 | 0.00 | 75 | 1011.0 |
| 20260831022604 | 64 | 0 | 0.0 | 9.0 | 0.00 | 0.00 | 0.00 | 75 | 1010.9 |
| 20260831022043 | 64 | 0 | 0.0 | 9.0 | 0.00 | 0.00 | 0.00 | 75 | 1010.9 |
| 20260831021558 | 64 | 0 | 0.0 | 5.0 | 0.00 | 0.00 | 0.00 | 76 | 1010.8 |
| 20260831021046 | 63 | 175 | 0.0 | 5.0 | 0.00 | 0.00 | 0.00 | 76 | 1011.0 |
| 20260831020546 | 63 | 0 | 0.0 | 0.0 | 0.00 | 0.00 | 0.00 | 76 | 1010.9 |
| 20260831020117 | 63 | 0 | 0.0 | 0.0 | 0.00 | 0.00 | 0.00 | 76 | 1010.7 |
| 20260831015545 | 64 | 0 | 0.0 | 0.0 | 0.00 | 0.03 | 0.00 | 76 | 1010.7 |
| 20260831015135 | 64 | 0 | 0.0 | 0.0 | 0.00 | 0.03 | 0.00 | 76 | 1010.7 |
| 20260831014611 | 64 | 0 | 0.0 | 0.0 | 0.00 | 0.03 | 0.00 | 75 | 1010.8 |
| 20260831014045 | 64 | 0 | 0.0 | 2.0 | 0.00 | 0.03 | 0.00 | 74 | 1010.7 |
| 20260831013652 | 64 | 0 | 0.0 | 5.0 | 0.00 | 0.03 | 0.00 | 74 | 1010.7 |
| 20260831013059 | 64 | 0 | 0.0 | 5.0 | 0.00 | 0.03 | 0.00 | 75 | 1010.9 |
| 20260831012543 | 64 | 201 | 0.0 | 5.0 | 0.00 | 0.03 | 0.00 | 75 | 1011.2 |
| 20260831012045 | 64 | 0 | 0.0 | 4.0 | 0.00 | 0.03 | 0.00 | 75 | 1011.3 |
| 20260831011614 | 64 | 0 | 0.0 | 2.0 | 0.00 | 0.03 | 0.00 | 75 | 1011.3 |
| 20260831011042 | 64 | 0 | 0.0 | 2.0 | 0.00 | 0.03 | 0.00 | 75 | 1011.5 |
| 20260831010542 | 64 | 0 | 0.0 | 2.0 | 0.00 | 0.03 | 0.00 | 75 | 1011.5 |
| 20260831010107 | 64 | 0 | 0.0 | 0.0 | 0.00 | 0.03 | 0.00 | 75 | 1011.4 |
| 20260831005542 | 64 | 0 | 0.0 | 0.0 | 0.00 | 0.09 | 0.00 | 75 | 1011.5 |
| 20260831005043 | 64 | 0 | 0.0 | 0.0 | 0.00 | 0.09 | 0.00 | 75 | 1011.4 |
| 20260831004606 | 64 | 0 | 0.0 | 0.0 | 0.00 | 0.09 | 0.00 | 75 | 1011.3 |
| 20260831004044 | 64 | 0 | 0.0 | 0.0 | 0.00 | 0.09 | 0.00 | 75 | 1011.4 |
| 20260831003543 | 64 | 0 | 0.0 | 0.0 | 0.00 | 0.09 | 0.00 | 76 | 1011.4 |
| 20260831003108 | 64 | 0 | 0.0 | 0.0 | 0.00 | 0.09 | 0.00 | 76 | 1011.5 |
| 20260831002542 | 64 | 0 | 0.0 | 0.0 | 0.00 | 0.09 | 0.00 | 76 | 1011.7 |
| 20260831002043 | 64 | 0 | 0.0 | 0.0 | 0.00 | 0.09 | 0.00 | 77 | 1011.6 |
| 20260831001603 | 64 | 0 | 0.0 | 0.0 | 0.00 | 0.09 | 0.00 | 77 | 1011.8 |
| 20260831001045 | 64 | 0 | 0.0 | 0.0 | 0.00 | 0.09 | 0.00 | 77 | 1011.6 |
| 20260831000542 | 63 | 0 | 0.0 | 0.0 | 0.00 | 0.09 | 0.00 | 78 | 1011.5 |
| 20260831000101 | 63 | 0 | 0.0 | 0.0 | 0.00 | 0.09 | 0.00 | 79 | 1011.6 |
| 20260830235542 | 63 | 0 | 0.0 | 0.0 | 0.00 | 0.09 | 0.00 | 79 | 1011.7 |
| 20260830235044 | 63 | 0 | 0.0 | 0.0 | 0.00 | 0.09 | 0.00 | 79 | 1011.7 |
| 20260830234614 | 63 | 0 | 0.0 | 0.0 | 0.00 | 0.09 | 0.00 | 79 | 1011.8 |
| 20260830234041 | 63 | 0 | 0.0 | 0.0 | 0.00 | 0.09 | 0.00 | 79 | 1011.6 |
| 20260830233542 | 63 | 0 | 0.0 | 0.0 | 0.00 | 0.09 | 0.00 | 79 | 1011.8 |
| 20260830233106 | 63 | 0 | 0.0 | 0.0 | 0.00 | 0.09 | 0.00 | 79 | 1011.7 |
| 20260830232542 | 63 | 0 | 0.0 | 0.0 | 0.00 | 0.09 | 0.00 | 79 | 1011.8 |
| 20260830232042 | 63 | 0 | 0.0 | 0.0 | 0.00 | 0.09 | 0.00 | 79 | 1011.8 |
| 20260830231605 | 63 | 0 | 0.0 | 0.0 | 0.00 | 0.09 | 0.00 | 79 | 1011.8 |
| 20260830231041 | 63 | 0 | 0.0 | 0.0 | 0.00 | 0.09 | 0.00 | 78 | 1011.9 |
| 20260830230543 | 63 | 0 | 0.0 | 0.0 | 0.00 | 0.09 | 0.00 | 78 | 1011.9 |
| 20260830230104 | 63 | 0 | 0.0 | 0.0 | 0.00 | 0.09 | 0.00 | 78 | 1011.8 |
| 20260830225542 | 64 | 0 | 0.0 | 0.0 | 0.00 | 0.09 | 0.00 | 78 | 1011.9 |
| 20260830225046 | 64 | 0 | 0.0 | 0.0 | 0.00 | 0.09 | 0.00 | 77 | 1012.0 |
| 20260830224607 | 64 | 0 | 0.0 | 0.0 | 0.00 | 0.09 | 0.00 | 77 | 1012.2 |
| 20260830224046 | 64 | 0 | 0.0 | 0.0 | 0.00 | 0.09 | 0.00 | 77 | 1012.2 |
| 20260830223546 | 64 | 0 | 0.0 | 0.0 | 0.00 | 0.09 | 0.00 | 77 | 1012.2 |
| 20260830223108 | 64 | 0 | 0.0 | 0.0 | 0.00 | 0.09 | 0.00 | 78 | 1012.2 |
| 20260830222542 | 64 | 0 | 0.0 | 0.0 | 0.00 | 0.09 | 0.00 | 78 | 1012.2 |
| 20260830222138 | 64 | 0 | 0.0 | 0.0 | 0.00 | 0.09 | 0.00 | 78 | 1012.3 |
| 20260830221602 | 64 | 0 | 0.0 | 0.0 | 0.00 | 0.09 | 0.00 | 77 | 1012.3 |
| 20260830221046 | 64 | 0 | 0.0 | 0.0 | 0.00 | 0.09 | 0.00 | 77 | 1012.4 |
| 20260830220545 | 64 | 0 | 0.0 | 0.0 | 0.00 | 0.09 | 0.00 | 76 | 1012.3 |
| 20260830215545 | 64 | 0 | 0.0 | 0.0 | 0.00 | 0.09 | 0.09 | 76 | 1012.6 |
| 20260830215046 | 64 | 0 | 0.0 | 0.0 | 0.00 | 0.09 | 0.09 | 77 | 1012.5 |
| 20260830214607 | 64 | 0 | 0.0 | 0.0 | 0.00 | 0.09 | 0.09 | 77 | 1012.5 |
| 20260830214044 | 64 | 0 | 0.0 | 0.0 | 0.00 | 0.09 | 0.09 | 77 | 1012.6 |
| 20260830213542 | 64 | 0 | 0.0 | 0.0 | 0.00 | 0.09 | 0.09 | 77 | 1012.7 |
| 20260830213108 | 64 | 0 | 0.0 | 0.0 | 0.00 | 0.09 | 0.09 | 77 | 1012.7 |
| 20260830212542 | 64 | 0 | 0.0 | 0.0 | 0.00 | 0.09 | 0.09 | 78 | 1012.8 |
| 20260830212042 | 64 | 0 | 0.0 | 0.0 | 0.00 | 0.09 | 0.09 | 78 | 1012.7 |
| 20260830211606 | 64 | 0 | 0.0 | 0.0 | 0.00 | 0.09 | 0.09 | 77 | 1012.6 |
| 20260830211043 | 64 | 0 | 0.0 | 0.0 | 0.00 | 0.09 | 0.09 | 78 | 1012.7 |
| 20260830210546 | 64 | 0 | 0.0 | 0.0 | 0.00 | 0.09 | 0.09 | 78 | 1012.7 |
| 20260830210108 | 64 | 0 | 0.0 | 0.0 | 0.00 | 0.09 | 0.09 | 79 | 1012.7 |
| 20260830205545 | 64 | 0 | 0.0 | 0.0 | 0.00 | 0.09 | 0.09 | 79 | 1012.8 |
| 20260830205042 | 63 | 0 | 0.0 | 0.0 | 0.00 | 0.09 | 0.09 | 80 | 1013.0 |
| 20260830204606 | 63 | 0 | 0.0 | 0.0 | 0.00 | 0.09 | 0.09 | 83 | 1012.9 |
| 20260830204044 | 62 | 0 | 0.0 | 0.0 | 0.00 | 0.09 | 0.09 | 84 | 1013.0 |
| 20260830203545 | 62 | 0 | 0.0 | 0.0 | 0.00 | 0.09 | 0.09 | 84 | 1012.9 |
| 20260830203103 | 62 | 0 | 0.0 | 0.0 | 0.00 | 0.09 | 0.09 | 84 | 1012.9 |
| 20260830202542 | 62 | 0 | 0.0 | 0.0 | 0.00 | 0.09 | 0.09 | 84 | 1012.9 |
| 20260830202042 | 62 | 0 | 0.0 | 0.0 | 0.00 | 0.09 | 0.09 | 84 | 1012.9 |
| 20260830201613 | 62 | 0 | 0.0 | 0.0 | 0.00 | 0.09 | 0.09 | 84 | 1012.8 |
| 20260830201042 | 63 | 0 | 0.0 | 0.0 | 0.00 | 0.09 | 0.09 | 83 | 1012.9 |
| 20260830200544 | 63 | 0 | 0.0 | 0.0 | 0.00 | 0.09 | 0.09 | 83 | 1012.7 |
| 20260830200058 | 63 | 0 | 0.0 | 0.0 | 0.00 | 0.09 | 0.09 | 83 | 1012.9 |
| 20260830195546 | 63 | 0 | 0.0 | 0.0 | 0.00 | 0.09 | 0.09 | 82 | 1013.0 |
| 20260830195042 | 63 | 0 | 0.0 | 0.0 | 0.00 | 0.09 | 0.09 | 82 | 1013.0 |
| 20260830194606 | 63 | 0 | 0.0 | 0.0 | 0.00 | 0.09 | 0.09 | 82 | 1012.9 |
| 20260830194042 | 63 | 0 | 0.0 | 0.0 | 0.00 | 0.09 | 0.09 | 81 | 1013.0 |
| 20260830193542 | 63 | 0 | 0.0 | 0.0 | 0.00 | 0.09 | 0.09 | 81 | 1013.0 |
| 20260830193102 | 63 | 0 | 0.0 | 0.0 | 0.00 | 0.09 | 0.09 | 80 | 1013.2 |
| 20260830192541 | 63 | 0 | 0.0 | 0.0 | 0.00 | 0.09 | 0.09 | 80 | 1013.1 |
| 20260830192041 | 64 | 0 | 0.0 | 0.0 | 0.00 | 0.09 | 0.09 | 79 | 1013.1 |
| 20260830191604 | 64 | 0 | 0.0 | 0.0 | 0.00 | 0.09 | 0.09 | 78 | 1013.1 |
| 20260830191042 | 64 | 0 | 0.0 | 0.0 | 0.00 | 0.09 | 0.09 | 76 | 1013.0 |
| 20260830190544 | 64 | 0 | 0.0 | 0.0 | 0.00 | 0.09 | 0.09 | 76 | 1013.2 |
| 20260830190057 | 64 | 0 | 0.0 | 0.0 | 0.00 | 0.09 | 0.09 | 76 | 1013.2 |
| 20260830185545 | 64 | 0 | 0.0 | 0.0 | 0.00 | 0.10 | 0.09 | 76 | 1013.2 |
| 20260830185041 | 65 | 0 | 0.0 | 0.0 | 0.00 | 0.10 | 0.09 | 75 | 1013.1 |
| 20260830184605 | 65 | 0 | 0.0 | 0.0 | 0.00 | 0.10 | 0.09 | 75 | 1013.1 |
| 20260830184046 | 65 | 0 | 0.0 | 0.0 | 0.00 | 0.10 | 0.09 | 73 | 1013.0 |
| 20260830183625 | 65 | 0 | 0.0 | 0.0 | 0.00 | 0.10 | 0.09 | 74 | 1013.1 |
| 20260830183100 | 65 | 0 | 0.0 | 0.0 | 0.00 | 0.10 | 0.09 | 74 | 1013.2 |
| 20260830182547 | 66 | 0 | 0.0 | 0.0 | 0.00 | 0.10 | 0.09 | 73 | 1013.2 |
| 20260830182049 | 66 | 0 | 0.0 | 0.0 | 0.00 | 0.10 | 0.09 | 72 | 1013.1 |
| 20260830181611 | 66 | 0 | 0.0 | 0.0 | 0.00 | 0.10 | 0.09 | 71 | 1013.2 |
| 20260830181050 | 67 | 0 | 0.0 | 0.0 | 0.00 | 0.10 | 0.09 | 70 | 1013.3 |
| 20260830180546 | 67 | 0 | 0.0 | 0.0 | 0.00 | 0.10 | 0.09 | 70 | 1013.2 |
| 20260830180112 | 67 | 0 | 0.0 | 0.0 | 0.00 | 0.10 | 0.09 | 69 | 1013.2 |
| 20260830175546 | 68 | 0 | 0.0 | 0.0 | 0.00 | 0.10 | 0.09 | 69 | 1013.2 |
| 20260830175046 | 68 | 0 | 0.0 | 0.0 | 0.00 | 0.10 | 0.09 | 68 | 1013.2 |
| 20260830174606 | 68 | 0 | 0.0 | 0.0 | 0.00 | 0.10 | 0.09 | 68 | 1013.3 |
| 20260830174046 | 68 | 0 | 0.0 | 0.0 | 0.00 | 0.10 | 0.09 | 68 | 1013.3 |
| 20260830173546 | 68 | 0 | 0.0 | 0.0 | 0.00 | 0.10 | 0.09 | 67 | 1013.2 |
| 20260830173112 | 69 | 0 | 0.0 | 0.0 | 0.00 | 0.10 | 0.09 | 66 | 1013.1 |
| 20260830172546 | 69 | 0 | 0.0 | 0.0 | 0.00 | 0.10 | 0.09 | 66 | 1013.2 |
| 20260830172046 | 69 | 0 | 0.0 | 0.0 | 0.00 | 0.10 | 0.09 | 66 | 1013.2 |
| 20260830171603 | 69 | 0 | 0.0 | 0.0 | 0.00 | 0.10 | 0.09 | 66 | 1013.1 |
| 20260830171046 | 69 | 0 | 0.0 | 4.0 | 0.00 | 0.10 | 0.09 | 67 | 1013.2 |
| 20260830170547 | 69 | 0 | 0.0 | 4.0 | 0.00 | 0.10 | 0.09 | 67 | 1013.2 |
| 20260830170107 | 69 | 0 | 0.0 | 0.0 | 0.00 | 0.10 | 0.09 | 69 | 1013.1 |
| 20260830165547 | 70 | 0 | 0.0 | 0.0 | 0.00 | 0.10 | 0.09 | 68 | 1013.1 |
| 20260830165046 | 70 | 0 | 0.0 | 1.0 | 0.00 | 0.10 | 0.09 | 67 | 1013.1 |
| 20260830164605 | 70 | 0 | 0.0 | 2.0 | 0.00 | 0.10 | 0.09 | 66 | 1013.0 |
| 20260830164046 | 70 | 0 | 0.0 | 2.0 | 0.00 | 0.10 | 0.09 | 66 | 1013.2 |
| 20260830163546 | 70 | 0 | 0.0 | 4.0 | 0.00 | 0.10 | 0.09 | 67 | 1013.2 |
| 20260830163103 | 70 | 0 | 0.0 | 10.0 | 0.00 | 0.10 | 0.09 | 66 | 1013.1 |
| 20260830162546 | 71 | 0 | 0.0 | 10.0 | 0.00 | 0.10 | 0.09 | 63 | 1013.3 |
| 20260830162046 | 71 | 0 | 0.0 | 10.0 | 0.00 | 0.10 | 0.09 | 64 | 1013.1 |
| 20260830161601 | 71 | 0 | 0.0 | 9.0 | 0.00 | 0.10 | 0.09 | 64 | 1013.2 |
| 20260830161046 | 71 | 194 | 2.0 | 13.0 | 0.00 | 0.10 | 0.09 | 64 | 1013.2 |
| 20260830160548 | 71 | 0 | 2.0 | 13.0 | 0.00 | 0.10 | 0.09 | 64 | 1013.0 |
| 20260830160109 | 71 | 0 | 3.0 | 13.0 | 0.00 | 0.10 | 0.09 | 63 | 1013.2 |
| 20260830155546 | 71 | 0 | 4.0 | 13.0 | 0.00 | 0.10 | 0.09 | 64 | 1013.1 |
| 20260830155046 | 71 | 222 | 5.0 | 13.0 | 0.00 | 0.10 | 0.09 | 63 | 1013.1 |
| 20260830154604 | 71 | 234 | 2.0 | 12.0 | 0.00 | 0.10 | 0.09 | 66 | 1013.2 |
| 20260830154049 | 71 | 0 | 1.0 | 12.0 | 0.00 | 0.10 | 0.09 | 65 | 1013.2 |
| 20260830153545 | 71 | 244 | 3.0 | 12.0 | 0.00 | 0.10 | 0.09 | 64 | 1013.2 |
| 20260830153106 | 71 | 205 | 2.0 | 12.0 | 0.00 | 0.10 | 0.09 | 65 | 1013.2 |
| 20260830152547 | 71 | 0 | 2.0 | 15.0 | 0.00 | 0.10 | 0.09 | 66 | 1013.3 |
| 20260830152047 | 71 | 202 | 3.0 | 15.0 | 0.00 | 0.10 | 0.09 | 65 | 1013.3 |
| 20260830151623 | 71 | 257 | 6.0 | 17.0 | 0.00 | 0.10 | 0.09 | 66 | 1013.4 |
| 20260830151047 | 71 | 238 | 4.0 | 17.0 | 0.00 | 0.10 | 0.09 | 65 | 1013.4 |
| 20260830150551 | 71 | 236 | 2.0 | 16.0 | 0.00 | 0.10 | 0.09 | 66 | 1013.4 |
| 20260830150108 | 71 | 0 | 3.0 | 16.0 | 0.00 | 0.10 | 0.09 | 65 | 1013.4 |
| 20260830145547 | 71 | 0 | 7.0 | 16.0 | 0.00 | 0.10 | 0.09 | 66 | 1013.5 |
| 20260830145047 | 71 | 238 | 1.0 | 9.0 | 0.00 | 0.10 | 0.09 | 67 | 1013.4 |
| 20260830144607 | 71 | 0 | 1.0 | 10.0 | 0.00 | 0.10 | 0.09 | 68 | 1013.4 |
| 20260830144050 | 70 | 0 | 1.0 | 13.0 | 0.00 | 0.10 | 0.09 | 68 | 1013.5 |
| 20260830143546 | 70 | 0 | 3.0 | 13.0 | 0.00 | 0.10 | 0.09 | 67 | 1013.5 |
| 20260830143106 | 71 | 0 | 2.0 | 10.0 | 0.00 | 0.10 | 0.09 | 68 | 1013.5 |
| 20260830142546 | 71 | 0 | 1.0 | 12.0 | 0.00 | 0.10 | 0.09 | 68 | 1013.5 |
| 20260830142047 | 70 | 222 | 3.0 | 14.0 | 0.00 | 0.10 | 0.09 | 67 | 1013.5 |
| 20260830141603 | 70 | 242 | 2.0 | 14.0 | 0.00 | 0.10 | 0.09 | 68 | 1013.5 |
| 20260830141047 | 70 | 184 | 6.0 | 16.0 | 0.00 | 0.10 | 0.09 | 68 | 1013.5 |
| 20260830140550 | 70 | 243 | 3.0 | 18.0 | 0.00 | 0.10 | 0.09 | 69 | 1013.4 |
| 20260830140104 | 70 | 244 | 4.0 | 18.0 | 0.00 | 0.10 | 0.09 | 67 | 1013.6 |
| 20260830135546 | 70 | 234 | 5.0 | 22.0 | 0.00 | 0.10 | 0.09 | 68 | 1013.6 |
| 20260830135046 | 70 | 245 | 7.0 | 22.0 | 0.00 | 0.10 | 0.09 | 68 | 1013.6 |
| 20260830134600 | 70 | 231 | 3.0 | 15.0 | 0.00 | 0.10 | 0.09 | 70 | 1013.6 |
| 20260830134047 | 69 | 0 | 5.0 | 15.0 | 0.00 | 0.10 | 0.09 | 69 | 1013.6 |
| 20260830133546 | 69 | 241 | 5.0 | 15.0 | 0.00 | 0.10 | 0.09 | 70 | 1013.6 |
| 20260830133105 | 69 | 248 | 3.0 | 15.0 | 0.00 | 0.10 | 0.09 | 70 | 1013.5 |
| 20260830132547 | 69 | 212 | 0.0 | 10.0 | 0.00 | 0.10 | 0.09 | 71 | 1013.5 |
| 20260830132046 | 69 | 0 | 1.0 | 17.0 | 0.00 | 0.10 | 0.09 | 72 | 1013.6 |
| 20260830131606 | 69 | 244 | 6.0 | 19.0 | 0.00 | 0.10 | 0.09 | 71 | 1013.6 |
| 20260830131047 | 69 | 258 | 7.0 | 19.0 | 0.00 | 0.10 | 0.09 | 71 | 1013.6 |
| 20260830130544 | 69 | 0 | 3.0 | 20.0 | 0.00 | 0.10 | 0.09 | 70 | 1013.6 |
| 20260830130105 | 69 | 229 | 7.0 | 20.0 | 0.00 | 0.10 | 0.09 | 71 | 1013.6 |
| 20260830125544 | 69 | 248 | 6.0 | 18.0 | 0.00 | 0.10 | 0.09 | 70 | 1013.6 |
| 20260830125046 | 69 | 243 | 6.0 | 21.0 | 0.00 | 0.10 | 0.09 | 71 | 1013.6 |
| 20260830124603 | 69 | 247 | 6.0 | 21.0 | 0.00 | 0.10 | 0.09 | 71 | 1013.6 |
| 20260830124047 | 69 | 234 | 7.0 | 16.0 | 0.00 | 0.10 | 0.09 | 70 | 1013.5 |
| 20260830123548 | 69 | 257 | 7.0 | 15.0 | 0.00 | 0.10 | 0.09 | 70 | 1013.5 |
| 20260830123108 | 69 | 233 | 2.0 | 21.0 | 0.00 | 0.10 | 0.09 | 70 | 1013.5 |
| 20260830122545 | 69 | 239 | 8.0 | 21.0 | 0.00 | 0.10 | 0.09 | 70 | 1013.5 |
| 20260830122045 | 69 | 257 | 8.0 | 21.0 | 0.00 | 0.10 | 0.09 | 71 | 1013.3 |
| 20260830121605 | 70 | 223 | 3.0 | 23.0 | 0.00 | 0.10 | 0.09 | 72 | 1013.3 |
| 20260830121046 | 69 | 0 | 5.0 | 23.0 | 0.00 | 0.10 | 0.09 | 72 | 1013.3 |
| 20260830120546 | 69 | 236 | 7.0 | 22.0 | 0.00 | 0.10 | 0.09 | 73 | 1013.3 |
| 20260830120104 | 69 | 222 | 4.0 | 19.0 | 0.00 | 0.10 | 0.09 | 73 | 1013.3 |
| 20260830115546 | 69 | 252 | 6.0 | 19.0 | 0.00 | 0.10 | 0.09 | 73 | 1013.3 |
| 20260830115048 | 69 | 207 | 1.0 | 14.0 | 0.00 | 0.10 | 0.09 | 74 | 1013.3 |
| 20260830114600 | 68 | 240 | 4.0 | 14.0 | 0.00 | 0.10 | 0.09 | 75 | 1013.2 |
| 20260830114046 | 68 | 0 | 3.0 | 13.0 | 0.00 | 0.10 | 0.09 | 77 | 1013.3 |
| 20260830113546 | 67 | 220 | 0.0 | 17.0 | 0.00 | 0.10 | 0.09 | 78 | 1013.3 |
| 20260830113103 | 67 | 0 | 5.0 | 17.0 | 0.00 | 0.10 | 0.09 | 77 | 1013.3 |
| 20260830112546 | 68 | 0 | 4.0 | 16.0 | 0.00 | 0.10 | 0.09 | 75 | 1013.2 |
| 20260830112046 | 68 | 0 | 2.0 | 13.0 | 0.00 | 0.10 | 0.09 | 76 | 1013.1 |
| 20260830111603 | 68 | 221 | 5.0 | 12.0 | 0.00 | 0.10 | 0.09 | 75 | 1013.1 |
| 20260830111046 | 69 | 224 | 3.0 | 12.0 | 0.00 | 0.10 | 0.09 | 76 | 1013.1 |
| 20260830110546 | 69 | 220 | 3.0 | 14.0 | 0.00 | 0.10 | 0.09 | 75 | 1013.1 |
| 20260830110113 | 69 | 243 | 3.0 | 14.0 | 0.00 | 0.10 | 0.09 | 75 | 1013.1 |
| 20260830105545 | 69 | 234 | 1.0 | 12.0 | 0.00 | 0.10 | 0.09 | 77 | 1013.0 |
| 20260830105047 | 68 | 229 | 2.0 | 17.0 | 0.00 | 0.10 | 0.09 | 78 | 1013.1 |
| 20260830104607 | 68 | 194 | 5.0 | 17.0 | 0.00 | 0.10 | 0.09 | 77 | 1013.0 |
| 20260830104047 | 67 | 240 | 2.0 | 19.0 | 0.00 | 0.10 | 0.09 | 79 | 1013.1 |
| 20260830103545 | 67 | 238 | 6.0 | 19.0 | 0.00 | 0.10 | 0.09 | 79 | 1013.1 |
| 20260830103108 | 67 | 248 | 1.0 | 13.0 | 0.00 | 0.10 | 0.09 | 79 | 1013.0 |
| 20260830102544 | 67 | 0 | 4.0 | 16.0 | 0.00 | 0.10 | 0.09 | 78 | 1013.1 |
| 20260830102046 | 67 | 0 | 5.0 | 16.0 | 0.00 | 0.10 | 0.09 | 78 | 1013.0 |
| 20260830101606 | 67 | 227 | 3.0 | 15.0 | 0.00 | 0.10 | 0.09 | 80 | 1013.0 |
| 20260830101047 | 67 | 237 | 5.0 | 14.0 | 0.00 | 0.10 | 0.09 | 79 | 1012.8 |
| 20260830100548 | 67 | 258 | 3.0 | 16.0 | 0.00 | 0.10 | 0.09 | 79 | 1013.0 |
| 20260830100105 | 67 | 277 | 3.0 | 16.0 | 0.00 | 0.10 | 0.09 | 83 | 1013.0 |
| 20260830095546 | 66 | 207 | 5.0 | 18.0 | 0.00 | 0.10 | 0.09 | 83 | 1013.0 |
| 20260830095047 | 65 | 200 | 7.0 | 18.0 | 0.00 | 0.10 | 0.09 | 84 | 1013.1 |
| 20260830094615 | 65 | 222 | 5.0 | 18.0 | 0.00 | 0.10 | 0.09 | 85 | 1013.0 |
| 20260830094044 | 65 | 221 | 5.0 | 18.0 | 0.00 | 0.10 | 0.09 | 84 | 1013.0 |
| 20260830093546 | 65 | 225 | 6.0 | 18.0 | 0.00 | 0.10 | 0.09 | 84 | 1013.0 |
| 20260830093105 | 64 | 219 | 4.0 | 16.0 | 0.00 | 0.10 | 0.09 | 85 | 1013.1 |
| 20260830092618 | 64 | 221 | 4.0 | 16.0 | 0.00 | 0.10 | 0.09 | 85 | 1013.0 |
| 20260830092047 | 64 | 253 | 3.0 | 18.0 | 0.00 | 0.10 | 0.09 | 86 | 1013.0 |
| 20260830091601 | 64 | 247 | 6.0 | 18.0 | 0.00 | 0.10 | 0.09 | 86 | 1013.0 |
| 20260830091046 | 64 | 203 | 4.0 | 17.0 | 0.00 | 0.10 | 0.09 | 85 | 1013.0 |
| 20260830090547 | 64 | 206 | 5.0 | 18.0 | 0.00 | 0.10 | 0.09 | 83 | 1013.0 |
| 20260830090058 | 64 | 0 | 6.0 | 20.0 | 0.00 | 0.10 | 0.09 | 82 | 1012.9 |
| 20260830085546 | 64 | 250 | 8.0 | 20.0 | 0.00 | 0.10 | 0.09 | 82 | 1012.7 |
| 20260830085047 | 64 | 207 | 8.0 | 18.0 | 0.00 | 0.10 | 0.09 | 82 | 1012.5 |
| 20260830084606 | 65 | 212 | 6.0 | 19.0 | 0.00 | 0.10 | 0.09 | 81 | 1012.4 |
| 20260830084047 | 65 | 227 | 4.0 | 19.0 | 0.00 | 0.10 | 0.09 | 80 | 1012.3 |
| 20260830083546 | 65 | 207 | 5.0 | 21.0 | 0.00 | 0.10 | 0.09 | 80 | 1012.2 |
| 20260830083106 | 65 | 235 | 4.0 | 21.0 | 0.00 | 0.10 | 0.09 | 79 | 1012.2 |
| 20260830082545 | 65 | 210 | 5.0 | 22.0 | 0.00 | 0.10 | 0.09 | 79 | 1012.1 |
| 20260830082045 | 66 | 261 | 7.0 | 24.0 | 0.00 | 0.10 | 0.09 | 78 | 1012.1 |
| 20260830081606 | 66 | 212 | 9.0 | 24.0 | 0.00 | 0.10 | 0.09 | 77 | 1012.1 |
| 20260830081046 | 66 | 244 | 6.0 | 23.0 | 0.00 | 0.10 | 0.09 | 77 | 1011.9 |
| 20260830080547 | 66 | 0 | 5.0 | 21.0 | 0.00 | 0.10 | 0.09 | 78 | 1011.8 |
| 20260830075547 | 66 | 216 | 5.0 | 19.0 | 0.00 | 0.10 | 0.09 | 79 | 1011.8 |
| 20260830075045 | 65 | 205 | 6.0 | 18.0 | 0.00 | 0.10 | 0.09 | 78 | 1011.8 |
| 20260830074626 | 66 | 215 | 5.0 | 18.0 | 0.00 | 0.10 | 0.09 | 78 | 1011.6 |
| 20260830074046 | 66 | 221 | 5.0 | 18.0 | 0.00 | 0.10 | 0.09 | 77 | 1011.6 |
| 20260830073546 | 66 | 207 | 5.0 | 17.0 | 0.00 | 0.10 | 0.09 | 78 | 1011.5 |
| 20260830073114 | 66 | 240 | 6.0 | 18.0 | 0.00 | 0.10 | 0.09 | 79 | 1011.4 |
| 20260830072546 | 65 | 197 | 3.0 | 20.0 | 0.00 | 0.10 | 0.09 | 78 | 1011.4 |
| 20260830072046 | 65 | 201 | 10.0 | 20.0 | 0.00 | 0.10 | 0.09 | 79 | 1011.3 |
| 20260830071604 | 65 | 0 | 7.0 | 26.0 | 0.00 | 0.10 | 0.09 | 79 | 1011.3 |
| 20260830071045 | 65 | 196 | 3.0 | 26.0 | 0.00 | 0.10 | 0.09 | 80 | 1011.3 |
| 20260830070546 | 65 | 251 | 8.0 | 26.0 | 0.00 | 0.10 | 0.09 | 80 | 1011.2 |
| 20260830070108 | 65 | 211 | 3.0 | 21.0 | 0.00 | 0.10 | 0.09 | 80 | 1011.2 |
| 20260830065545 | 65 | 252 | 6.0 | 21.0 | 0.00 | 0.10 | 0.09 | 79 | 1011.2 |
| 20260830065045 | 65 | 175 | 6.0 | 21.0 | 0.00 | 0.10 | 0.09 | 80 | 1011.2 |
| 20260830064605 | 64 | 0 | 2.0 | 22.0 | 0.00 | 0.10 | 0.09 | 81 | 1011.1 |
| 20260830064048 | 64 | 229 | 3.0 | 22.0 | 0.00 | 0.10 | 0.09 | 80 | 1011.1 |
| 20260830063546 | 64 | 241 | 4.0 | 21.0 | 0.00 | 0.10 | 0.09 | 81 | 1011.0 |
| 20260830063100 | 64 | 0 | 3.0 | 19.0 | 0.00 | 0.10 | 0.09 | 82 | 1010.9 |
| 20260830062549 | 64 | 0 | 3.0 | 15.0 | 0.00 | 0.10 | 0.09 | 82 | 1011.0 |
| 20260830062045 | 64 | 0 | 2.0 | 14.0 | 0.00 | 0.10 | 0.09 | 82 | 1010.9 |
| 20260830061637 | 63 | 251 | 3.0 | 14.0 | 0.00 | 0.10 | 0.09 | 82 | 1010.8 |
| 20260830061042 | 64 | 261 | 4.0 | 15.0 | 0.00 | 0.10 | 0.09 | 83 | 1010.8 |
| 20260830060547 | 63 | 0 | 4.0 | 15.0 | 0.00 | 0.10 | 0.09 | 84 | 1010.7 |
| 20260830060106 | 63 | 233 | 1.0 | 13.0 | 0.00 | 0.09 | 0.08 | 84 | 1010.7 |
| 20260830055545 | 63 | 0 | 2.0 | 13.0 | 0.00 | 0.09 | 0.08 | 85 | 1010.7 |
| 20260830055046 | 62 | 198 | 2.0 | 11.0 | 0.00 | 0.09 | 0.08 | 85 | 1010.7 |
| 20260830054558 | 62 | 0 | 1.0 | 15.0 | 0.00 | 0.09 | 0.08 | 85 | 1010.6 |
| 20260830054046 | 62 | 0 | 2.0 | 16.0 | 0.00 | 0.09 | 0.08 | 85 | 1010.6 |
| 20260830053545 | 62 | 244 | 2.0 | 16.0 | 0.00 | 0.09 | 0.08 | 86 | 1010.5 |
| 20260830053105 | 62 | 0 | 3.0 | 17.0 | 0.00 | 0.09 | 0.08 | 86 | 1010.5 |
| 20260830052546 | 62 | 193 | 1.0 | 22.0 | 0.00 | 0.09 | 0.08 | 86 | 1010.5 |
| 20260830052046 | 62 | 0 | 5.0 | 22.0 | 0.00 | 0.09 | 0.08 | 86 | 1010.4 |
| 20260830051604 | 62 | 0 | 4.0 | 16.0 | 0.00 | 0.09 | 0.08 | 87 | 1010.4 |
| 20260830051046 | 62 | 232 | 4.0 | 17.0 | 0.00 | 0.09 | 0.08 | 87 | 1010.3 |
| 20260830050546 | 61 | 0 | 4.0 | 17.0 | 0.00 | 0.09 | 0.08 | 87 | 1010.3 |
| 20260830050108 | 61 | 224 | 4.0 | 17.0 | 0.00 | 0.09 | 0.08 | 87 | 1010.2 |
| 20260830045545 | 62 | 229 | 3.0 | 15.0 | 0.00 | 0.09 | 0.08 | 87 | 1010.2 |
| 20260830045045 | 61 | 236 | 3.0 | 15.0 | 0.00 | 0.09 | 0.08 | 88 | 1010.1 |
| 20260830044610 | 61 | 0 | 2.0 | 15.0 | 0.00 | 0.09 | 0.08 | 88 | 1010.0 |
| 20260830044046 | 61 | 234 | 2.0 | 19.0 | 0.00 | 0.09 | 0.08 | 88 | 1010.0 |
| 20260830043546 | 61 | 203 | 7.0 | 19.0 | 0.00 | 0.09 | 0.08 | 88 | 1009.9 |
| 20260830043146 | 61 | 0 | 3.0 | 15.0 | 0.00 | 0.09 | 0.08 | 88 | 1010.0 |
| 20260830042547 | 61 | 249 | 2.0 | 16.0 | 0.00 | 0.09 | 0.08 | 88 | 1009.9 |
| 20260830042047 | 61 | 217 | 5.0 | 16.0 | 0.00 | 0.09 | 0.08 | 88 | 1009.8 |
| 20260830041609 | 61 | 0 | 5.0 | 18.0 | 0.00 | 0.09 | 0.08 | 88 | 1009.9 |
| 20260830041046 | 61 | 0 | 2.0 | 18.0 | 0.00 | 0.09 | 0.08 | 88 | 1009.9 |
| 20260830040546 | 61 | 0 | 5.0 | 18.0 | 0.00 | 0.09 | 0.08 | 89 | 1009.8 |
| 20260830040105 | 61 | 248 | 6.0 | 18.0 | 0.00 | 0.09 | 0.08 | 89 | 1009.7 |